User: anonymous   Login
Location: Caltech
(34.1382°N, 118.1253°W)
Time: 22:52:03
(UTC-08:00)
Language:

ASTRO E2 - Orbit

View from above orbital plane
View from above orbital plane
View from above satellite
View from above satellite

Ground track
Ground track

The orbit data is extracted from the following two-line orbital elements,

1 28773U 05025A   18051.59774548 +.00001021 +00000-0 +46890-4 0  9998
2 28773 031.3827 124.8222 0004718 321.9990 038.0324 15.16368157695101
Epoch (UTC): 20 February 2018 14:20:45
Eccentricity: 0.0004718
inclination: 31.3827°
perigee height: 513 km
apogee height: 520 km
right ascension of ascending node: 124.8222°
argument of perigee: 321.9990°
revolutions per day: 15.16368157
mean anomaly at epoch: 38.0324°
orbit number at epoch: 69510

The dashed part of the orbit path shows where the satellite is in the earth's shadow,  

DLR